Weather in Yampil

Ukraine / Sumi District     51°56′52″N   33°47′12″E
temp.,
°C
wind,
m/s
gust,
m/s
humid.,
%
clouds,
%
prec.,
mm/h
press.,
hPa
HPBL,
m
16 october, sat
sat1600:00+7ssw5126674 0.0 1021341
03:00+5ssw4117753 0.0 1020239
06:00+4s410813 0.0 1019186
09:00+6ssw512755 0.0 1019341
12:00+11ssw7115811 0.0 1018803
15:00+11sw79625 0.0 1016849
18:00+8ssw48838 0.0 1017143
21:00+7sw368975 0.0 1018167
17 october, sun
sun1700:00+6wnw22905 0.0 101831
03:00+5w229112 0.0 101819
06:00+4w229398 0.0 101934
09:00+5wsw348769 0.0 1019157
12:00+10w45675 0.0 1018701
15:00+11w565952 0.0 10171129
18:00+8w367094 0.0 101796
21:00+8wnw4757100 0.0 1018263
18 october, mon
mon1800:00+5wsw3671100 0.0 1018132
03:00+5wsw3875100 0.0 1017171
06:00+4wsw378116 0.0 1017149
09:00+5wsw497569 0.0 1017295
12:00+9wsw586091 0.0 1016697
15:00+9w5761100 0.0 10151062
18:00+8w5870100 0.0 1015947
21:00+7wnw4881100 0.1 1016849
19 october, tue
tue1900:00+4nw248998 0.0 1016111
03:00+3nw359447 0.0 1017104
06:00+1wnw35890 0.0 1018105
09:00+2nw510774 0.0 1019382
12:00+5nw686529 0.0 10201060
15:00+5nnw6866100 0.0 10211355
18:00+4nw5866100 0.0 10231143
21:00+3nw5865100 0.0 1024810
20 october, wed
wed2000:00+3wnw3669100 0.0 1025470
03:00+3w3676100 0.0 1025236
06:00+1wnw369072 0.0 1026130
09:00+2w35805 0.0 1027199
12:00+5wsw345895 0.0 1026762
15:00+7sw565789 0.0 10241093
18:00+5ssw41066100 0.0 1023257
21:00+6ssw61361100 0.0 1021504